DELTA 1 DEB, 12528

Orbit data source: Space-Track

DELTA 1 DEB, 12528 is space debris in SSO originally from a launch on Thu, 29 Jul 1976 UTC launched from the Air Force Western Test Range (AFWTR). Debris objects in space refer to the collection of defunct objects orbiting the Earth. Examples of debris include non-operational satellites, rocket bodies, and fragments generated from explosions, collisions, or faulty payload assembly.

Loading next visibility...
Identifier
12528, 1976-077DH
Orbit
SSO
Country
Flag of USUS
Related business
Manufacturer
Unknown
Mission
Spacecraft
Bus & Motor
Unknown
Mass
Unknown
Launch date (UTC)
1976-07-29 (50 years ago)
Launch vehicle
Unknown
Launch site
Air Force Western Test Range (AFWTR)
Object type
Payload
Rocket body
Debris
Shape & HBR
Unknown shape, 0.4 m
Radar Cross Section
Medium (>0.1 m² and <1 m²)

Expand to show TLE details & history
Last TLE update: 11 hours ago

TLE from 11 hours ago
0 DELTA 1 DEB
1 12528U 76077DH  26255.90334377 -.00000037  00000-0  77287-4 0  9997
2 12528 102.5754 242.1266 0077738 137.9588 278.2989 12.27228576181940
Epoch: 2026-09-12T21:40Z
TLE epoch observation values (Epoch: 2026-09-12T21:40:48.901Z)
Latitude
53.52608°
Longitude
-92.45788°
Altitude
1,561.287 km
Speed
7.096 km/s
True Right ascension
14h 58m 36s
True Declination
53° 22' 42"
Sunlit
Object was in daylight at epoch
Visualization orbit readout
Latitude
Unknown
Longitude
Unknown
Altitude
Unknown
Speed
Unknown
Apparent Right ascension
Unknown
Apparent Declination
Unknown
Sunlit
N/A
Visualization observer readout
Local Sidereal Time
01:04:36
Azimuth
Unknown
Elevation
Unknown
Doppler factor
Unknown
Orbital elements
Apogee altitude
1,620.538 km
Perigee altitude
1,497.137 km
Semi-major axis
7,936.975 km
Eccentricity
0.00777
Inclination
102.5754°
RAAN
242.1266°
Arg. of periapsis
137.9588°
True anomaly
277.41621°
Mean anomaly
278.2989°
Eccentric anomaly
277.85768°
Mean motion
3.06945 °/min
Orbital period
117.28 mins
BSTAR
0.000077287
Loading maneuver chart data...
Computing Atmospheric mass density...
Loading historical data...
Loading historical data...
Loading historical data...
Loading historical data...
Loading historical data...
Loading historical data...
Loading historical data...

Documentation

Showing up to 5 results
|